User: anonymous   Login
Location: Granada
(37.1830°N, 3.6000°W)
Time: 04:39:45
(UTC+02:00)
Language:

Iridium 70 - Orbit

View from above orbital plane
View from above orbital plane
View from above satellite
View from above satellite

Ground track
Ground track

The orbit data is extracted from the following two-line orbital elements,

1 25342U 98032A   15209.35838760  .00000198  00000-0  63585-4 0  9994
2 25342 086.4009 152.5886 0002454 086.1594 028.1962 14.34219096900228
Epoch (UTC): 28 July 2015 08:36:04
Eccentricity: 0.0002454
inclination: 86.4009°
perigee height: 776 km
apogee height: 779 km
right ascension of ascending node: 152.5886°
argument of perigee: 86.1594°
revolutions per day: 14.34219096
mean anomaly at epoch: 28.1962°
orbit number at epoch: 90022

The dashed part of the orbit path shows where the satellite is in the earth's shadow,  

DLR